Time,TemperatureF,DewpointF,PressureIn,WindDirection,WindDirectionDegrees,WindSpeedMPH,WindSpeedGustMPH,Humidity,HourlyPrecipIn,Conditions,Clouds,dailyrainin,SoftwareType,DateUTC
2013-05-20 00:14:00,51.3,46.0,29.91,West,281,1.0,2.0,82,0.00,,,0.00,weatherlink.com 1.10,2013-05-20 04:14:00,
2013-05-20 00:29:00,51.6,48.0,29.91,South,187,0.0,2.0,86,0.00,,,0.00,weatherlink.com 1.10,2013-05-20 04:29:00,
2013-05-20 00:44:00,52.3,47.0,29.91,SSE,160,0.0,4.0,81,0.00,,,0.00,weatherlink.com 1.10,2013-05-20 04:44:00,
2013-05-20 00:59:00,49.3,44.0,29.92,NNE,23,3.0,7.0,83,0.00,,,0.00,weatherlink.com 1.10,2013-05-20 04:59:00,
2013-05-20 01:14:00,46.0,42.0,29.93,NW,307,5.0,6.0,87,0.00,,,0.00,weatherlink.com 1.10,2013-05-20 05:14:00,
2013-05-20 01:29:00,47.4,45.0,29.93,ENE,76,3.0,9.0,91,0.00,,,0.00,weatherlink.com 1.10,2013-05-20 05:29:00,
2013-05-20 01:44:00,48.8,46.0,29.94,ENE,59,2.0,5.0,89,0.00,,,0.00,weatherlink.com 1.10,2013-05-20 05:44:00,
2013-05-20 01:59:00,52.5,49.0,29.94,East,92,3.0,9.0,87,0.00,,,0.00,weatherlink.com 1.10,2013-05-20 05:59:00,
2013-05-20 02:14:00,53.8,50.0,29.93,ESE,119,4.0,8.0,86,0.00,,,0.00,weatherlink.com 1.10,2013-05-20 06:14:00,
2013-05-20 02:29:00,53.2,48.0,29.93,WNW,294,5.0,7.0,82,0.00,,,0.00,weatherlink.com 1.10,2013-05-20 06:29:00,
2013-05-20 02:44:00,48.3,45.0,29.93,NW,320,5.0,6.0,89,0.00,,,0.00,weatherlink.com 1.10,2013-05-20 06:44:00,
2013-05-20 02:59:00,48.2,46.0,29.93,West,265,1.0,4.0,90,0.00,,,0.00,weatherlink.com 1.10,2013-05-20 06:59:00,
2013-05-20 03:14:00,49.8,48.0,29.93,East,80,6.0,7.0,92,0.00,,,0.00,weatherlink.com 1.10,2013-05-20 07:14:00,
2013-05-20 03:29:00,56.0,53.0,29.93,ESE,107,10.0,14.0,90,0.00,,,0.00,weatherlink.com 1.10,2013-05-20 07:29:00,
2013-05-20 03:44:00,57.7,54.0,29.93,ESE,108,11.0,15.0,88,0.00,,,0.00,weatherlink.com 1.10,2013-05-20 07:44:00,
2013-05-20 03:59:00,58.2,55.0,29.94,ESE,109,8.0,18.0,89,0.00,,,0.00,weatherlink.com 1.10,2013-05-20 07:59:00,
2013-05-20 04:14:00,58.0,55.0,29.94,East,101,10.0,17.0,89,0.00,,,0.00,weatherlink.com 1.10,2013-05-20 08:14:00,
2013-05-20 04:29:00,57.1,54.0,29.94,East,97,9.0,13.0,89,0.00,,,0.00,weatherlink.com 1.10,2013-05-20 08:29:00,
2013-05-20 04:44:00,57.2,54.0,29.94,East,81,11.0,19.0,89,0.00,,,0.00,weatherlink.com 1.10,2013-05-20 08:44:00,
2013-05-20 04:59:00,56.8,54.0,29.94,NE,50,7.0,15.0,90,0.00,,,0.00,weatherlink.com 1.10,2013-05-20 08:59:00,
2013-05-20 05:14:00,55.0,53.0,29.95,East,89,10.0,15.0,91,0.00,,,0.00,weatherlink.com 1.10,2013-05-20 09:14:00,
2013-05-20 05:29:00,54.6,52.0,29.95,East,91,10.0,16.0,91,0.00,,,0.00,weatherlink.com 1.10,2013-05-20 09:29:00,
2013-05-20 05:44:00,54.0,51.0,29.94,East,100,14.0,19.0,90,0.00,,,0.00,weatherlink.com 1.10,2013-05-20 09:44:00,
2013-05-20 05:59:00,53.7,51.0,29.94,East,90,10.0,21.0,89,0.00,,,0.00,weatherlink.com 1.10,2013-05-20 09:59:00,
2013-05-20 06:14:00,54.5,51.0,29.95,East,83,16.0,22.0,89,0.00,,,0.00,weatherlink.com 1.10,2013-05-20 10:14:00,
2013-05-20 06:29:00,54.8,51.0,29.94,East,82,17.0,20.0,87,0.00,,,0.00,weatherlink.com 1.10,2013-05-20 10:29:00,
2013-05-20 06:44:00,54.6,51.0,29.94,ESE,106,10.0,21.0,86,0.00,,,0.00,weatherlink.com 1.10,2013-05-20 10:44:00,
2013-05-20 06:59:00,54.8,51.0,29.94,East,98,17.0,23.0,87,0.00,,,0.00,weatherlink.com 1.10,2013-05-20 10:59:00,
2013-05-20 07:14:00,55.2,51.0,29.94,East,92,13.0,17.0,86,0.00,,,0.00,weatherlink.com 1.10,2013-05-20 11:14:00,
2013-05-20 07:30:00,55.3,51.0,29.95,East,87,9.0,22.0,86,0.00,,,0.00,weatherlink.com 1.10,2013-05-20 11:30:00,
2013-05-20 07:44:00,55.5,51.0,29.95,East,84,19.0,23.0,86,0.00,,,0.00,weatherlink.com 1.10,2013-05-20 11:44:00,
2013-05-20 07:59:00,55.6,52.0,29.95,East,98,15.0,23.0,86,0.00,,,0.00,weatherlink.com 1.10,2013-05-20 11:59:00,
2013-05-20 08:14:00,55.8,51.0,29.95,East,89,14.0,21.0,85,0.00,,,0.00,weatherlink.com 1.10,2013-05-20 12:14:00,
2013-05-20 08:29:00,56.0,52.0,29.94,East,98,16.0,24.0,85,0.00,,,0.00,weatherlink.com 1.10,2013-05-20 12:29:00,
2013-05-20 08:44:00,55.4,51.0,29.93,East,90,18.0,23.0,86,0.00,,,0.00,weatherlink.com 1.10,2013-05-20 12:44:00,
2013-05-20 08:59:00,55.0,51.0,29.93,East,94,17.0,28.0,86,0.00,,,0.00,weatherlink.com 1.10,2013-05-20 12:59:00,
2013-05-20 09:15:00,54.6,51.0,29.94,East,94,18.0,26.0,87,0.00,,,0.00,weatherlink.com 1.10,2013-05-20 13:15:00,
2013-05-20 09:30:00,54.0,50.0,29.94,East,94,22.0,23.0,87,0.00,,,0.00,weatherlink.com 1.10,2013-05-20 13:30:00,
2013-05-20 09:45:00,53.5,50.0,29.92,ENE,64,16.0,24.0,87,0.00,,,0.00,weatherlink.com 1.10,2013-05-20 13:45:00,
2013-05-20 10:00:00,52.8,49.0,29.93,ENE,74,10.0,23.0,87,0.00,,,0.00,weatherlink.com 1.10,2013-05-20 14:00:00,
2013-05-20 10:15:00,53.3,50.0,29.94,ENE,72,14.0,21.0,88,0.00,,,0.00,weatherlink.com 1.10,2013-05-20 14:15:00,
2013-05-20 10:30:00,52.3,49.0,29.95,ENE,74,15.0,21.0,88,0.00,,,0.00,weatherlink.com 1.10,2013-05-20 14:30:00,
2013-05-20 10:45:00,52.2,49.0,29.94,ENE,72,18.0,21.0,88,0.00,,,0.00,weatherlink.com 1.10,2013-05-20 14:45:00,
2013-05-20 11:00:00,52.0,48.0,29.96,East,80,16.0,23.0,87,0.00,,,0.00,weatherlink.com 1.10,2013-05-20 15:00:00,
2013-05-20 11:15:00,54.2,50.0,29.94,East,85,14.0,23.0,86,0.00,,,0.00,weatherlink.com 1.10,2013-05-20 15:15:00,
2013-05-20 11:30:00,57.3,52.0,29.93,ENE,73,12.0,19.0,82,0.00,,,0.00,weatherlink.com 1.10,2013-05-20 15:30:00,
2013-05-20 11:45:00,58.7,52.0,29.93,East,98,22.0,22.0,79,0.00,,,0.00,weatherlink.com 1.10,2013-05-20 15:45:00,
2013-05-20 12:00:00,58.3,52.0,29.92,ENE,74,20.0,25.0,79,0.00,,,0.00,weatherlink.com 1.10,2013-05-20 16:00:00,
2013-05-20 12:15:00,57.8,52.0,29.93,East,80,16.0,25.0,80,0.00,,,0.00,weatherlink.com 1.10,2013-05-20 16:15:00,
2013-05-20 12:30:00,56.9,51.0,29.92,East,83,22.0,26.0,80,0.00,,,0.00,weatherlink.com 1.10,2013-05-20 16:30:00,
2013-05-20 12:45:00,57.2,51.0,29.91,East,79,19.0,27.0,79,0.00,,,0.00,weatherlink.com 1.10,2013-05-20 16:45:00,
2013-05-20 13:00:00,57.7,51.0,29.89,East,91,11.0,29.0,79,0.00,,,0.00,weatherlink.com 1.10,2013-05-20 17:00:00,
2013-05-20 13:15:00,57.6,51.0,29.89,East,81,23.0,30.0,78,0.00,,,0.00,weatherlink.com 1.10,2013-05-20 17:15:00,
2013-05-20 13:45:00,56.7,50.0,29.88,East,86,23.0,31.0,79,0.00,,,0.00,weatherlink.com 1.10,2013-05-20 17:45:00,
2013-05-20 14:00:00,56.0,50.0,29.88,ESE,112,17.0,27.0,79,0.00,,,0.00,weatherlink.com 1.10,2013-05-20 18:00:00,
2013-05-20 14:15:00,56.3,50.0,29.86,East,93,26.0,31.0,80,0.00,,,0.00,weatherlink.com 1.10,2013-05-20 18:15:00,
2013-05-20 14:30:00,56.7,50.0,29.86,East,84,16.0,33.0,78,0.00,,,0.00,weatherlink.com 1.10,2013-05-20 18:30:00,
2013-05-20 14:45:00,56.4,50.0,29.84,East,84,20.0,34.0,80,0.00,,,0.00,weatherlink.com 1.10,2013-05-20 18:45:00,
2013-05-20 15:00:00,56.6,50.0,29.83,East,87,22.0,27.0,79,0.00,,,0.00,weatherlink.com 1.10,2013-05-20 19:00:00,
2013-05-20 15:15:00,56.5,50.0,29.82,ENE,76,15.0,33.0,78,0.00,,,0.00,weatherlink.com 1.10,2013-05-20 19:15:00,